DW8338 Weather Reports


time (UTC)temp
F
wind
direction
speed
knots
gust
knots
rain 1hr
in
rain 24hr
in
rain mn
in
humidity
%
barometer
mb
20260507144803 73 231 7.8 13.9 0.00 0.00 0.00 45 1008.2
20260507144304 73 231 7.0 13.0 0.00 0.00 0.00 47 1008.2
20260507143304 72 208 7.8 11.3 0.00 0.00 0.00 49 1008.3
20260507142306 72 227 8.7 13.9 0.00 0.00 0.00 50 1008.5
20260507141804 72 229 9.6 13.9 0.00 0.00 0.00 52 1008.5
20260507141304 72 212 6.1 12.2 0.00 0.00 0.00 52 1008.5
20260507140804 72 212 8.7 14.8 0.00 0.00 0.00 53 1008.5
20260507140304 72 187 7.8 14.8 0.00 0.00 0.00 53 1008.5
20260507135804 72 200 10.4 15.6 0.00 0.00 0.00 51 1008.6
20260507134303 72 161 6.1 12.2 0.00 0.00 0.00 53 1008.8
20260507133804 71 233 7.0 14.8 0.00 0.00 0.00 53 1008.8
20260507133304 71 208 9.6 13.9 0.00 0.00 0.00 53 1008.9
20260507132804 71 216 7.8 12.2 0.00 0.00 0.00 52 1008.9
20260507132307 71 230 7.0 12.2 0.00 0.00 0.00 53 1008.9
20260507131804 71 190 7.8 12.2 0.00 0.00 0.00 53 1008.9
20260507131304 71 177 6.1 13.0 0.00 0.00 0.00 54 1008.9
20260507130804 71 183 9.6 17.4 0.00 0.00 0.00 53 1008.9
20260507130304 71 174 7.8 14.8 0.00 0.00 0.00 52 1009.0
20260507125804 71 205 6.1 12.2 0.00 0.00 0.00 53 1009.0
20260507125306 72 224 6.1 13.0 0.00 0.00 0.00 52 1009.1
20260507124803 72 203 7.8 13.0 0.00 0.00 0.00 53 1009.1
20260507124303 72 182 6.1 11.3 0.00 0.00 0.00 54 1009.1
20260507123804 72 211 7.8 13.9 0.00 0.00 0.00 53 1009.1
20260507123304 72 188 5.2 14.8 0.00 0.00 0.00 54 1009.2
20260507122804 71 215 7.8 12.2 0.00 0.00 0.00 54 1009.2
20260507122307 71 182 7.0 14.8 0.00 0.00 0.00 55 1009.3
20260507121804 72 213 7.8 12.2 0.00 0.00 0.00 54 1009.3
20260507121303 72 206 7.8 12.2 0.00 0.00 0.00 56 1009.3
20260507120804 71 203 6.1 12.2 0.00 0.00 0.00 55 1009.3
20260507120304 71 174 8.7 15.6 0.00 0.00 0.00 55 1009.4
20260507115804 71 223 6.1 12.2 0.00 0.00 0.00 56 1009.4
20260507115307 71 229 7.8 15.6 0.00 0.00 0.00 56 1009.5
20260507114804 71 206 7.8 14.8 0.00 0.00 0.00 55 1009.4
20260507114304 71 191 7.0 15.6 0.00 0.00 0.00 55 1009.6
20260507113803 70 177 6.1 11.3 0.00 0.00 0.00 56 1009.6
20260507113304 70 178 7.8 12.2 0.00 0.00 0.00 57 1009.6
20260507112306 70 207 7.0 13.0 0.00 0.00 0.00 58 1009.7
20260507111804 70 190 5.2 11.3 0.00 0.00 0.00 58 1009.7
20260507111304 69 213 5.2 10.4 0.00 0.00 0.00 60 1009.8
20260507110804 69 219 8.7 13.9 0.00 0.00 0.00 61 1009.8
20260507110304 69 189 9.6 17.4 0.00 0.00 0.00 60 1009.8
20260507105306 69 214 6.1 14.8 0.00 0.00 0.00 62 1009.8
20260507104804 69 210 8.7 14.8 0.00 0.00 0.00 61 1009.8
20260507104303 69 205 5.2 11.3 0.00 0.00 0.00 61 1009.8
20260507103804 69 196 6.1 12.2 0.00 0.00 0.00 62 1009.8
20260507102804 68 178 6.1 12.2 0.00 0.00 0.00 63 1009.9
20260507102306 68 228 6.1 12.2 0.00 0.00 0.00 64 1009.9
20260507101804 68 179 5.2 12.2 0.00 0.00 0.00 64 1009.9
20260507100804 67 175 6.1 10.4 0.00 0.00 0.00 66 1010.1
20260507100304 66 163 4.3 10.4 0.00 0.00 0.00 66 1010.1
20260507095804 67 196 5.2 10.4 0.00 0.00 0.00 65 1010.1
20260507095306 67 189 7.0 12.2 0.00 0.00 0.00 65 1010.1
20260507094803 67 183 7.0 12.2 0.00 0.00 0.00 66 1010.1
20260507094304 67 215 10.4 14.8 0.00 0.00 0.00 66 1010.1
20260507093804 67 206 7.8 13.9 0.00 0.00 0.00 68 1010.1
20260507093304 66 165 6.1 11.3 0.00 0.00 0.00 69 1010.1
20260507092803 66 178 6.1 11.3 0.00 0.00 0.00 69 1010.1
20260507092306 66 162 7.0 11.3 0.00 0.00 0.00 69 1010.1
20260507090804 65 175 8.7 12.2 0.00 0.00 0.00 71 1010.2
20260507085804 66 183 8.7 14.8 0.00 0.00 0.00 71 1010.2
20260507085306 65 142 5.2 13.9 0.00 0.00 0.00 72 1010.0
20260507084803 65 167 5.2 13.0 0.00 0.00 0.00 72 1010.0
20260507083804 65 146 6.1 12.2 0.00 0.00 0.00 74 1010.1
20260507083304 64 138 6.1 11.3 0.00 0.00 0.00 74 1010.0
20260507082804 64 143 7.8 11.3 0.00 0.00 0.00 74 1010.0
20260507081304 64 172 5.2 10.4 0.00 0.00 0.00 74 1009.9
20260507080804 64 167 6.1 11.3 0.00 0.00 0.00 74 1009.9
20260507080304 63 168 6.1 10.4 0.00 0.00 0.00 74 1009.8
20260507075804 63 190 4.3 10.4 0.00 0.00 0.00 75 1009.8
20260507075306 63 188 7.0 10.4 0.00 0.00 0.00 75 1009.8
20260507074304 63 189 5.2 13.0 0.00 0.00 0.00 74 1009.7
20260507073804 62 137 3.5 7.8 0.00 0.00 0.00 75 1009.7
20260507073304 62 180 5.2 7.8 0.00 0.00 0.00 75 1009.6
20260507072803 62 181 2.6 7.0 0.00 0.00 0.00 75 1009.6
20260507072306 62 141 4.3 6.1 0.00 0.00 0.00 74 1009.5
20260507071804 62 157 3.5 6.1 0.00 0.00 0.00 74 1009.5
20260507070804 61 166 2.6 4.3 0.00 0.00 0.00 75 1009.5
20260507070304 61 111 1.7 5.2 0.00 0.00 0.00 75 1009.4
20260507065804 60 94 2.6 6.1 0.00 0.00 0.00 76 1009.4
20260507065306 60 137 2.6 5.2 0.00 0.00 0.00 76 1009.4
20260507064803 60 142 2.6 7.0 0.00 0.00 0.00 77 1009.4
20260507064303 60 155 2.6 4.3 0.00 0.00 0.00 77 1009.4
20260507063804 60 165 2.6 2.6 0.00 0.00 0.00 78 1009.4
20260507063304 60 163 1.7 2.6 0.00 0.00 0.00 78 1009.3
20260507062804 60 146 1.7 2.6 0.00 0.00 0.00 78 1009.2
20260507062306 59 129 1.7 2.6 0.00 0.00 0.00 78 1009.2
20260507061804 59 238 0.0 0.9 0.00 0.00 0.00 78 1009.1
20260507061303 59 211 0.9 2.6 0.00 0.00 0.00 78 1009.1
20260507060804 59 158 0.9 2.6 0.00 0.00 0.00 79 1009.1
20260507060304 59 130 0.0 1.7 0.00 0.00 0.00 79 1009.0
20260507055804 58 161 1.7 2.6 0.00 0.00 0.00 79 1009.0
20260507055306 58 111 0.9 4.3 0.00 0.00 0.00 80 1009.0
20260507054804 58 110 1.7 4.3 0.00 0.00 0.00 80 1009.0
20260507054304 58 154 0.9 1.7 0.00 0.00 0.00 80 1008.9
20260507053804 58 160 0.9 1.7 0.00 0.00 0.00 80 1008.9
20260507053303 58 146 0.9 2.6 0.00 0.00 0.00 80 1009.0
20260507052803 58 124 0.9 2.6 0.00 0.00 0.00 80 1009.0
20260507051803 58 147 0.9 1.7 0.00 0.00 0.00 80 1008.9
20260507051303 58 149 0.0 2.6 0.00 0.00 0.00 80 1008.9
20260507050804 58 186 1.7 2.6 0.00 0.00 0.00 81 1008.8
20260507050304 58 183 0.0 1.7 0.00 0.00 0.00 81 1008.8
20260507045804 58 184 0.0 0.9 0.00 0.00 0.00 81 1008.8
20260507045306 58 204 0.9 2.6 0.00 0.00 0.00 81 1008.8
20260507044304 58 213 1.7 2.6 0.00 0.00 0.00 80 1008.6
20260507043804 58 192 1.7 2.6 0.00 0.00 0.00 80 1008.4
20260507043303 58 178 0.9 2.6 0.00 0.00 0.00 80 1008.4
20260507042804 58 198 1.7 2.6 0.00 0.00 0.00 80 1008.4
20260507042306 58 210 1.7 2.6 0.00 0.00 0.00 80 1008.4
20260507041804 58 196 0.9 6.1 0.00 0.00 0.00 80 1008.4
20260507041304 59 183 2.6 5.2 0.00 0.00 0.00 80 1008.3
20260507040804 59 153 1.7 6.1 0.00 0.00 0.00 79 1008.3
20260507040303 59 130 0.9 2.6 0.00 0.00 0.00 79 1008.3
20260507035804 59 163 1.7 2.6 0.00 0.00 0.00 79 1008.3
20260507034304 59 169 1.7 4.3 0.00 0.00 0.00 79 1008.3
20260507033803 59 154 2.6 5.2 0.00 0.00 0.00 78 1008.3
20260507033304 59 185 1.7 5.2 0.00 0.00 0.00 78 1008.3
20260507032804 59 132 0.0 1.7 0.00 0.00 0.00 78 1008.4
20260507031804 59 190 0.9 5.2 0.00 0.00 0.00 77 1008.4
20260507031304 59 165 2.6 4.3 0.00 0.00 0.00 77 1008.2
20260507030804 59 167 3.5 6.1 0.00 0.00 0.00 77 1008.2
20260507030304 59 180 2.6 6.1 0.00 0.00 0.00 77 1008.2
20260507025803 59 168 2.6 5.2 0.00 0.00 0.00 78 1008.2
20260507025306 59 152 1.7 2.6 0.00 0.00 0.00 78 1008.2
20260507024804 59 129 0.0 0.9 0.00 0.00 0.00 77 1008.2
20260507024303 59 168 0.0 2.6 0.00 0.00 0.00 77 1008.2
20260507023804 59 156 1.7 2.6 0.00 0.00 0.00 77 1008.2
20260507023304 59 187 0.0 1.7 0.00 0.00 0.00 77 1008.1
20260507022804 59 170 0.9 1.7 0.00 0.00 0.00 77 1008.1
20260507022306 59 181 1.7 2.6 0.00 0.00 0.00 77 1008.1
20260507021804 59 175 1.7 2.6 0.00 0.00 0.00 77 1008.1
20260507021304 59 197 2.6 4.3 0.00 0.00 0.00 77 1008.1
20260507020804 59 198 2.6 4.3 0.00 0.00 0.00 76 1008.1
20260507020303 59 182 1.7 2.6 0.00 0.00 0.00 76 1008.1
20260507015306 59 158 3.5 6.1 0.00 0.00 0.00 76 1008.3
20260507014804 59 177 2.6 6.1 0.00 0.00 0.00 76 1008.3
20260507014304 59 191 2.6 6.1 0.00 0.00 0.00 76 1008.3
20260507013804 59 198 2.6 7.0 0.00 0.00 0.00 75 1008.3
20260507013304 59 179 3.5 6.1 0.00 0.00 0.00 75 1008.4
20260507012804 59 187 3.5 6.1 0.00 0.00 0.00 75 1008.4
20260507012306 59 195 4.3 7.0 0.00 0.00 0.00 75 1008.4
20260507011804 59 189 4.3 6.1 0.00 0.00 0.00 75 1008.4
20260507011304 59 178 3.5 6.1 0.00 0.00 0.00 75 1008.5
20260507010804 59 192 2.6 4.3 0.00 0.00 0.00 75 1008.6
20260507005804 59 160 1.7 4.3 0.00 0.00 0.00 75 1008.7
20260507005305 59 184 2.6 5.2 0.00 0.00 0.00 75 1008.7
20260507004804 59 182 3.5 6.1 0.00 0.00 0.00 75 1008.7
20260507004304 59 161 3.5 6.1 0.00 0.00 0.00 75 1008.8
20260507003804 59 176 2.6 4.3 0.00 0.00 0.00 75 1008.8
20260507002306 60 197 4.3 6.1 0.00 0.00 0.00 74 1008.8
20260507001804 60 184 4.3 7.0 0.00 0.00 0.00 74 1008.8
20260507001303 60 202 2.6 7.0 0.00 0.00 0.00 74 1008.8
20260507000804 60 179 4.3 7.8 0.00 0.00 0.00 74 1009.0
20260507000306 60 160 4.3 8.7 0.00 0.00 0.00 74 1009.0
20260506235804 60 163 4.3 10.4 0.00 0.00 0.00 74 1009.0
20260506235306 60 163 5.2 7.8 0.00 0.00 0.00 74 1009.0
20260506234804 60 167 4.3 7.8 0.00 0.00 0.00 74 1009.0
20260506234303 60 154 4.3 7.0 0.00 0.00 0.00 74 1009.0
20260506233304 61 177 4.3 7.0 0.00 0.00 0.00 73 1009.1
20260506232804 61 162 2.6 6.1 0.00 0.00 0.00 73 1009.1
20260506232306 61 187 1.7 5.2 0.00 0.00 0.00 73 1009.0
20260506231804 61 172 4.3 7.0 0.00 0.00 0.00 73 1009.1
20260506231303 61 181 2.6 5.2 0.00 0.00 0.00 73 1009.1
20260506230804 61 165 2.6 5.2 0.00 0.00 0.00 73 1009.1
20260506230304 61 199 2.6 5.2 0.00 0.00 0.00 72 1009.1
20260506225804 61 186 1.7 4.3 0.00 0.00 0.00 72 1009.2
20260506225305 61 191 3.5 5.2 0.00 0.00 0.00 71 1009.2
20260506224804 61 194 2.6 5.2 0.00 0.00 0.00 71 1009.1
20260506224303 62 185 3.5 6.1 0.00 0.00 0.00 70 1009.2
20260506223804 62 180 4.3 7.0 0.00 0.00 0.00 69 1009.2
20260506221804 62 164 4.3 8.7 0.00 0.00 0.00 66 1009.1
20260506221304 62 168 3.5 6.1 0.00 0.00 0.00 65 1009.0
20260506220803 63 177 3.5 5.2 0.00 0.00 0.00 64 1009.0
20260506220303 63 169 2.6 6.1 0.00 0.00 0.00 63 1009.0
20260506215804 63 182 4.3 7.0 0.00 0.00 0.00 63 1009.0
20260506215306 63 163 4.3 7.0 0.00 0.00 0.00 62 1009.1
20260506214303 63 180 5.2 7.0 0.00 0.00 0.00 61 1009.0
20260506213804 64 180 4.3 7.8 0.00 0.00 0.00 60 1009.0
20260506212804 65 172 3.5 6.1 0.00 0.00 0.00 58 1008.9
20260506212306 65 179 3.5 6.1 0.00 0.00 0.00 58 1008.7
20260506211804 65 164 3.5 7.0 0.00 0.00 0.00 57 1008.7
20260506211304 65 174 3.5 6.1 0.00 0.00 0.00 57 1008.7
20260506210804 65 198 2.6 5.2 0.00 0.00 0.00 57 1008.6
20260506210304 65 189 2.6 6.1 0.00 0.00 0.00 56 1008.4
20260506205803 66 189 1.7 5.2 0.00 0.00 0.00 56 1008.4
20260506204304 66 226 2.6 10.4 0.00 0.00 0.00 55 1008.2
20260506203804 66 233 1.7 5.2 0.00 0.00 0.00 55 1008.2
20260506203305 66 208 2.6 6.1 0.00 0.00 0.00 55 1008.2
20260506202804 67 201 3.5 6.1 0.00 0.00 0.00 54 1008.1
20260506202306 67 189 4.3 8.7 0.00 0.00 0.00 54 1008.1
20260506201804 67 211 3.5 7.0 0.00 0.00 0.00 54 1008.0
20260506201304 67 199 4.3 8.7 0.00 0.00 0.00 53 1008.0
20260506200804 67 205 2.6 7.0 0.00 0.00 0.00 53 1008.0
20260506200304 68 218 5.2 7.8 0.00 0.00 0.00 53 1008.0
20260506195804 68 224 4.3 10.4 0.00 0.00 0.00 52 1008.0
20260506194804 69 219 3.5 8.7 0.00 0.00 0.00 51 1007.9
20260506194304 69 226 4.3 7.0 0.00 0.00 0.00 50 1007.8
20260506193803 69 221 2.6 5.2 0.00 0.00 0.00 50 1007.7
20260506193304 69 197 5.2 10.4 0.00 0.00 0.00 50 1007.7
20260506192804 69 233 6.1 10.4 0.00 0.00 0.00 50 1007.6
20260506192305 70 233 7.8 12.2 0.00 0.00 0.00 51 1007.5
20260506191303 70 225 6.1 10.4 0.00 0.00 0.00 50 1007.4
20260506190804 70 224 7.0 11.3 0.00 0.00 0.00 49 1007.3
20260506190304 71 226 4.3 8.7 0.00 0.00 0.00 48 1007.3
20260506185804 71 240 6.1 12.2 0.00 0.00 0.00 48 1007.3
20260506185306 71 245 5.2 11.3 0.00 0.00 0.00 47 1007.3
20260506184804 72 257 6.1 8.7 0.00 0.00 0.00 47 1007.2
20260506184304 72 255 5.2 8.7 0.00 0.00 0.00 47 1007.2
20260506183804 72 227 8.7 13.9 0.00 0.00 0.00 47 1007.2
20260506183304 72 253 6.1 10.4 0.00 0.00 0.00 46 1007.2
20260506182804 73 253 6.1 12.2 0.00 0.00 0.00 46 1007.2
20260506182306 73 241 7.8 12.2 0.00 0.00 0.00 45 1007.2
20260506181803 73 201 5.2 10.4 0.00 0.00 0.00 46 1007.2
20260506181303 73 212 7.8 13.9 0.00 0.00 0.00 46 1007.1
20260506180804 73 236 7.8 13.0 0.00 0.00 0.00 44 1007.1
20260506180304 73 241 8.7 12.2 0.00 0.00 0.00 43 1007.1
20260506175804 74 227 7.8 11.3 0.00 0.00 0.00 42 1007.1
20260506175306 74 231 6.1 10.4 0.00 0.00 0.00 41 1007.1
20260506174804 75 258 4.3 7.8 0.00 0.00 0.00 41 1007.1
20260506174304 75 239 6.1 8.7 0.00 0.00 0.00 40 1007.1
20260506173804 75 238 7.0 10.4 0.00 0.00 0.00 41 1007.1
20260506172306 75 241 6.1 10.4 0.00 0.00 0.00 41 1007.3
20260506171803 75 178 5.2 13.9 0.00 0.00 0.00 41 1007.3
20260506171303 76 220 6.1 12.2 0.00 0.00 0.00 40 1007.3
20260506170804 76 204 5.2 10.4 0.00 0.00 0.00 40 1007.3
20260506170304 76 219 4.3 10.4 0.00 0.00 0.00 40 1007.3
20260506165803 76 223 6.1 11.3 0.00 0.00 0.00 40 1007.3
20260506165305 76 211 7.8 11.3 0.00 0.00 0.00 40 1007.3
20260506164304 77 218 5.2 10.4 0.00 0.00 0.00 40 1007.5
20260506163803 76 193 5.2 13.9 0.00 0.00 0.00 40 1007.5
20260506163304 76 202 7.8 12.2 0.00 0.00 0.00 39 1007.4
20260506162803 76 198 9.6 14.8 0.00 0.00 0.00 38 1007.4
20260506162306 77 160 5.2 10.4 0.00 0.00 0.00 38 1007.4
20260506161304 77 142 4.3 7.8 0.00 0.00 0.00 34 1007.5
20260506160803 77 212 4.3 6.1 0.00 0.00 0.00 34 1007.5
20260506160304 77 129 3.5 7.0 0.00 0.00 0.00 34 1007.5
20260506155803 77 172 2.6 7.8 0.00 0.00 0.00 36 1007.5
20260506154804 76 107 3.5 7.8 0.00 0.00 0.00 35 1007.6
20260506153804 76 122 2.6 7.0 0.00 0.00 0.00 36 1007.7
20260506152804 76 77 6.1 10.4 0.00 0.00 0.00 36 1008.1
20260506152305 76 72 2.6 7.8 0.00 0.00 0.00 37 1008.1
20260506151803 75 126 0.9 6.1 0.00 0.00 0.00 38 1008.1
20260506151304 76 128 5.2 7.0 0.00 0.00 0.00 37 1008.2
20260506150804 76 179 6.1 8.7 0.00 0.00 0.00 36 1008.2
20260506150305 76 134 0.9 2.6 0.00 0.00 0.00 36 1008.3
20260506145803 76 134 2.6 4.3 0.00 0.00 0.00 36 1008.3
20260506145305 76 178 1.7 6.1 0.00 0.00 0.00 37 1008.4